Alcoa, TN

2:08 AM EST on February 14, 2016 (GMT -0500)
McGhee Tyson

Weather History for KTYS - April, 2014

Change the Weather History Date:

Tuesday, April 1, 2014

  Actual Average Record
Temperature  
Mean Temperature 62 °F 55 °F  
Max Temperature 79 °F 66 °F 85 °F (1963)
Min Temperature 45 °F 43 °F 22 °F (1987)
Degree Days  
Heating Degree Days 3 11  
Month to date heating degree days 3 11  
Since 1 July heating degree days 3583 3368  
Cooling Degree Days 0 0  
Month to date cooling degree days 0 0  
Year to date cooling degree days 0 5  
Growing Degree Days 12 (Base 50)    
Moisture  
Dew Point 38 °F    
Average Humidity 52    
Maximum Humidity 76    
Minimum Humidity 27    
Precipitation  
Precipitation 0.00 in 0.13 in 3.19 in (1896)
Month to date precipitation 0.00 0.13  
Year to date precipitation 10.49 13.05  
Snow  
Snow 0.00 in 0.00 in - ()
Month to date snowfall 0.0 0.0  
Since 1 July snowfall 12.4 6.0  
Snow Depth 0.00 in    
Sea Level Pressure  
Sea Level Pressure 30.06 in    
Wind  
Wind Speed 6 mph (SSW)    
Max Wind Speed 21 mph    
Max Gust Speed 25 mph    
Visibility 10 miles    
Events      
T = Trace of Precipitation, MM = Missing Value Source: NWS Daily Summary

Daily Weather History Graph

Daily Weather History Graph

Search for Another Location

Airport or City:

Trip Planner

Search our weather history database for the weather conditions in past years. The results will help you decide how hot, cold, wet, or windy it might be!

Date:

Astronomy

Apr. 01, 2014 Rise Set
Actual Time 7:22 AM EDT 7:57 PM EDT
Civil Twilight 6:56 AM EDT 8:23 PM EDT
Nautical Twilight 6:26 AM EDT 8:53 PM EDT
Astronomical Twilight 5:55 AM EDT 9:24 PM EDT
Moon 8:28 AM EDT (4/1) 10:14 PM EDT (4/1)
Length of Visible Light 13h 26m
Length of Day
12h 35m
Waxing Crescent, 4% of the Moon is Illuminated
Apr 1
Waxing Crescent
Apr 7
First Quarter
Apr 15
Full
Apr 22
Last Quarter
Apr 29
New

Hourly Weather History & Observations

Time (EDT) Temp. Windchill Dew Point Humidity Pressure Visibility Wind Dir Wind Speed Gust Speed Precip Events Conditions
12:53 AM 50.0 °F - 33.1 °F 52% 30.05 in 10.0 mi SE 3.5 mph - N/A   Overcast
1:53 AM 50.0 °F - 34.0 °F 54% 30.06 in 10.0 mi Calm Calm - N/A   Overcast
2:53 AM 48.0 °F - 35.1 °F 61% 30.07 in 10.0 mi Calm Calm - N/A   Overcast
3:53 AM 46.0 °F 44.8 °F 37.0 °F 71% 30.06 in 10.0 mi NE 3.5 mph - N/A   Overcast
4:53 AM 45.0 °F 43.5 °F 37.9 °F 76% 30.04 in 10.0 mi East 3.5 mph - N/A   Overcast
5:53 AM 48.9 °F - 39.0 °F 69% 30.08 in 10.0 mi NE 4.6 mph - N/A   Overcast
6:53 AM 48.9 °F - 37.0 °F 64% 30.10 in 10.0 mi SE 6.9 mph - N/A   Overcast
7:53 AM 50.0 °F - 37.0 °F 61% 30.12 in 10.0 mi Calm Calm - N/A   Overcast
8:53 AM 52.0 °F - 37.9 °F 59% 30.13 in 10.0 mi Calm Calm - N/A   Overcast
9:53 AM 55.9 °F - 39.0 °F 53% 30.12 in 10.0 mi Calm Calm - N/A   Mostly Cloudy
10:53 AM 63.0 °F - 41.0 °F 45% 30.12 in 10.0 mi SW 5.8 mph - N/A   Scattered Clouds
11:53 AM 71.1 °F - 39.0 °F 31% 30.11 in 10.0 mi SW 13.8 mph - N/A   Partly Cloudy
12:53 PM 72.0 °F - 41.0 °F 33% 30.09 in 10.0 mi SSW 9.2 mph - N/A   Partly Cloudy
1:53 PM 75.0 °F - 43.0 °F 32% 30.07 in 10.0 mi SW 15.0 mph 19.6 mph N/A   Partly Cloudy
2:53 PM 77.0 °F - 43.0 °F 30% 30.05 in 10.0 mi SSW 10.4 mph 19.6 mph N/A   Partly Cloudy
3:53 PM 78.1 °F - 44.1 °F 30% 30.03 in 10.0 mi SSW 11.5 mph - N/A   Scattered Clouds
4:53 PM 78.1 °F - 42.1 °F 28% 30.01 in 10.0 mi SSW 15.0 mph 24.2 mph N/A   Scattered Clouds
5:53 PM 77.0 °F - 41.0 °F 28% 30.00 in 10.0 mi SW 13.8 mph - N/A   Partly Cloudy
6:53 PM 75.0 °F - 39.0 °F 27% 30.00 in 10.0 mi SSW 12.7 mph - N/A   Partly Cloudy
8:53 PM 68.0 °F - 35.1 °F 30% 30.02 in 10.0 mi SSW 4.6 mph - N/A   Clear
9:53 PM 68.0 °F - 34.0 °F 28% 30.03 in 10.0 mi SW 3.5 mph - N/A   Clear
10:53 PM 64.0 °F - 34.0 °F 33% 30.04 in 10.0 mi South 4.6 mph - N/A   Clear
11:53 PM 62.1 °F - 33.1 °F 34% 30.04 in 10.0 mi SW 3.5 mph - N/A   Clear